QPF
0.00 0.00 0.00 0.00 0.00 0.00 0.00 0.00 0.00 0.00 0.01 0.02 0.01 0.00 0.00 0.00 0.00 0.00 0.00 0.00 0.00 0.00 0.00 0.00 0.00 0.01 0.01 0.01 0.00 0.00 0.01 0.01 0.01 0.01 0.01 0.01 0.01 0.02 0.04 0.08 0.05 0.03 0.03 0.04
0.00 0.00 0.00 0.00 0.00 0.00 0.00 0.00 0.00 0.00 0.01 0.03 0.01 0.00 0.00 0.00 0.00 0.00 0.00 0.00 0.00 0.00 0.00 0.00 0.00 0.00 0.01 0.01 0.01 0.01 0.01 0.01 0.02 0.02 0.03 0.02 0.02 0.02 0.06 0.06 0.03 0.02 0.04 0.05
0.00 0.00 0.00 0.00 0.00 0.00 0.00 0.00 0.00 0.00 0.01 0.03 0.01 0.00 0.00 0.00 0.00 0.00 0.00 0.00 0.00 0.00 0.00 0.00 0.00 0.00 0.01 0.01 0.01 0.01 0.01 0.01 0.02 0.03 0.04 0.03 0.02 0.02 0.02 0.03 0.03 0.03 0.04 0.05
0.00 0.00 0.00 0.00 0.00 0.00 0.00 0.00 0.00 0.00 0.01 0.01 0.00 0.00 0.00 0.00 0.00 0.00 0.00 0.00 0.00 0.00 0.00 0.00 0.00 0.00 0.01 0.01 0.01 0.01 0.01 0.02 0.02 0.02 0.02 0.02 0.02 0.03 0.03 0.03 0.03 0.03 0.02 0.03
0.00 0.00 0.00 0.00 0.00 0.00 0.01 0.02 0.00 0.00 0.00 0.00 0.00 0.00 0.00 0.00 0.00 0.00 0.00 0.01 0.01 0.00 0.00 0.00 0.00 0.00 0.00 0.01 0.01 0.01 0.01 0.01 0.02 0.02 0.02 0.03 0.03 0.03 0.03 0.03 0.02 0.02 0.02 0.03
0.00 0.00 0.00 0.01 0.00 0.00 0.00 0.01 0.00 0.00 0.00 0.00 0.00 0.01 0.01 0.00 0.00 0.01 0.01 0.01 0.01 0.01 0.01 0.01 0.01 0.01 0.01 0.01 0.01 0.01 0.01 0.01 0.02 0.03 0.02 0.01 0.02 0.02 0.03 0.02 0.02 0.02 0.02 0.02
0.00 0.00 0.00 0.00 0.00 0.00 0.00 0.01 0.00 0.00 0.00 0.00 0.00 0.01 0.01 0.04 0.05 0.03 0.02 0.01 0.01 0.01 0.02 0.03 0.03 0.02 0.02 0.01 0.01 0.01 0.01 0.01 0.01 0.02 0.01 0.01 0.02 0.01 0.01 0.01 0.01 0.02 0.01 0.01
0.00 0.00 0.01 0.00 0.00 0.01 0.02 0.00 0.00 0.00 0.00 0.00 0.00 0.00 0.01 0.01 0.01 0.01 0.01 0.01 0.01 0.02 0.02 0.04 0.03 0.02 0.03 0.02 0.01 0.01 0.01 0.01 0.01 0.01 0.01 0.01 0.02 0.02 0.01 0.01 0.02 0.02 0.02 0.02
0.01 0.02 0.02 0.00 0.01 0.01 0.01 0.00 0.00 0.00 0.00 0.00 0.00 0.00 0.00 0.00 0.00 0.01 0.01 0.01 0.02 0.02 0.03 0.03 0.02 0.02 0.03 0.02 0.02 0.02 0.02 0.02 0.02 0.02 0.02 0.02 0.02 0.02 0.01 0.01 0.02 0.03 0.03 0.02
0.00 0.01 0.02 0.01 0.01 0.01 0.01 0.01 0.00 0.00 0.00 0.00 0.00 0.00 0.00 0.00 0.01 0.01 0.01 0.02 0.02 0.02 0.03 0.03 0.02 0.02 0.03 0.04 0.04 0.03 0.03 0.02 0.02 0.02 0.02 0.01 0.01 0.01 0.01 0.01 0.02 0.03 0.03 0.03
0.01 0.01 0.01 0.01 0.01 0.01 0.00 0.01 0.00 0.00 0.00 0.00 0.00 0.00 0.00 0.01 0.01 0.01 0.02 0.02 0.03 0.03 0.04 0.04 0.04 0.04 0.04 0.04 0.03 0.03 0.02 0.02 0.01 0.01 0.01 0.01 0.01 0.01 0.01 0.01 0.02 0.02 0.03 0.03
0.03 0.03 0.02 0.02 0.01 0.01 0.00 0.00 0.00 0.00 0.00 0.00 0.01 0.01 0.02 0.02 0.02 0.02 0.03 0.03 0.04 0.04 0.03 0.03 0.03 0.04 0.04 0.03 0.02 0.02 0.02 0.02 0.01 0.01 0.01 0.00 0.01 0.01 0.01 0.01 0.01 0.01 0.01 0.01
0.04 0.04 0.04 0.04 0.02 0.01 0.01 0.01 0.01 0.01 0.01 0.01 0.01 0.01 0.02 0.02 0.02 0.02 0.02 0.02 0.02 0.02 0.02 0.02 0.02 0.02 0.02 0.02 0.02 0.01 0.02 0.01 0.01 0.01 0.01 0.00 0.00 0.00 0.01 0.01 0.01 0.01 0.01 0.01
0.02 0.01 0.02 0.03 0.04 0.02 0.01 0.01 0.00 0.01 0.01 0.00 0.01 0.00 0.00 0.01 0.01 0.01 0.01 0.02 0.02 0.02 0.02 0.02 0.03 0.03 0.02 0.02 0.01 0.01 0.01 0.01 0.01 0.01 0.01 0.01 0.01 0.01 0.01 0.01 0.01 0.01 0.01 0.01
0.01 0.01 0.01 0.02 0.02 0.02 0.01 0.01 0.01 0.01 0.01 0.01 0.01 0.00 0.00 0.01 0.01 0.01 0.01 0.02 0.02 0.02 0.02 0.03 0.04 0.04 0.03 0.02 0.02 0.01 0.01 0.01 0.02 0.02 0.02 0.01 0.01 0.01 0.01 0.01 0.01 0.01 0.01 0.01
0.03 0.02 0.02 0.02 0.04 0.04 0.02 0.02 0.02 0.01 0.01 0.01 0.01 0.01 0.00 0.00 0.00 0.00 0.01 0.02 0.02 0.02 0.02 0.02 0.03 0.03 0.03 0.02 0.02 0.02 0.02 0.02 0.02 0.02 0.02 0.02 0.02 0.01 0.01 0.01 0.01 0.01 0.01 0.01
0.03 0.04 0.05 0.05 0.05 0.04 0.04 0.03 0.03 0.02 0.01 0.00 0.00 0.00 0.00 0.01 0.01 0.01 0.01 0.02 0.01 0.02 0.02 0.02 0.02 0.02 0.02 0.02 0.02 0.02 0.02 0.02 0.02 0.02 0.02 0.02 0.01 0.01 0.01 0.01 0.01 0.00 0.00 0.00
0.01 0.02 0.04 0.05 0.07 0.07 0.05 0.04 0.04 0.03 0.01 0.01 0.00 0.00 0.00 0.00 0.00 0.01 0.01 0.01 0.02 0.02 0.03 0.02 0.02 0.02 0.02 0.02 0.02 0.03 0.02 0.02 0.02 0.03 0.03 0.02 0.01 0.01 0.01 0.00 0.00 0.00 0.00 0.00
0.01 0.02 0.03 0.04 0.05 0.05 0.06 0.04 0.03 0.03 0.01 0.01 0.01 0.00 0.00 0.00 0.00 0.01 0.01 0.01 0.01 0.02 0.01 0.01 0.01 0.02 0.02 0.03 0.03 0.03 0.02 0.02 0.02 0.02 0.02 0.02 0.01 0.01 0.01 0.01 0.01 0.01 0.01 0.01
0.01 0.01 0.02 0.03 0.03 0.04 0.04 0.04 0.03 0.02 0.01 0.01 0.01 0.01 0.01 0.01 0.00 0.01 0.01 0.02 0.02 0.03 0.03 0.02 0.01 0.01 0.01 0.02 0.03 0.03 0.02 0.02 0.02 0.01 0.02 0.02 0.01 0.02 0.02 0.01 0.01 0.01 0.02 0.02
0.01 0.01 0.02 0.02 0.02 0.02 0.02 0.02 0.02 0.02 0.01 0.01 0.01 0.01 0.01 0.01 0.01 0.01 0.02 0.02 0.03 0.03 0.02 0.02 0.01 0.01 0.01 0.01 0.02 0.01 0.02 0.03 0.03 0.03 0.03 0.03 0.03 0.03 0.02 0.02 0.01 0.01 0.02 0.02
0.02 0.02 0.02 0.02 0.02 0.02 0.02 0.02 0.02 0.02 0.02 0.02 0.02 0.02 0.02 0.02 0.01 0.01 0.01 0.02 0.02 0.02 0.01 0.01 0.01 0.01 0.01 0.01 0.01 0.01 0.02 0.02 0.03 0.03 0.03 0.03 0.03 0.03 0.03 0.03 0.03 0.02 0.02 0.02
0.03 0.02 0.02 0.02 0.03 0.03 0.03 0.03 0.02 0.02 0.02 0.02 0.02 0.03 0.03 0.02 0.02 0.02 0.02 0.02 0.02 0.01 0.01 0.01 0.01 0.02 0.02 0.01 0.01 0.02 0.02 0.03 0.03 0.03 0.03 0.03 0.03 0.02 0.02 0.02 0.02 0.02 0.03 0.03
0.04 0.03 0.03 0.03 0.03 0.04 0.04 0.04 0.04 0.04 0.03 0.02 0.02 0.03 0.04 0.03 0.03 0.02 0.02 0.02 0.02 0.02 0.02 0.02 0.01 0.01 0.01 0.01 0.02 0.03 0.02 0.02 0.02 0.02 0.01 0.01 0.01 0.01 0.01 0.01 0.01 0.01 0.02 0.02
0.07 0.05 0.04 0.05 0.05 0.06 0.04 0.04 0.04 0.04 0.03 0.03 0.03 0.03 0.03 0.03 0.03 0.03 0.03 0.03 0.02 0.02 0.02 0.01 0.01 0.01 0.01 0.01 0.02 0.02 0.01 0.01 0.01 0.01 0.01 0.01 0.01 0.01 0.00 0.01 0.01 0.01 0.02 0.02
0.07 0.06 0.06 0.06 0.06 0.06 0.05 0.04 0.03 0.03 0.03 0.03 0.03 0.02 0.02 0.01 0.02 0.02 0.02 0.02 0.02 0.02 0.01 0.01 0.01 0.01 0.01 0.01 0.01 0.01 0.01 0.01 0.01 0.01 0.01 0.01 0.01 0.00 0.01 0.01 0.01 0.02 0.02 0.02
0.06 0.07 0.06 0.05 0.04 0.05 0.06 0.06 0.04 0.03 0.03 0.03 0.02 0.01 0.02 0.02 0.02 0.02 0.02 0.02 0.02 0.02 0.01 0.01 0.01 0.01 0.01 0.01 0.01 0.01 0.01 0.01 0.01 0.01 0.01 0.01 0.01 0.00 0.01 0.01 0.01 0.01 0.01 0.02
MSLP
1010.41 1010.54 1010.60 1010.56 1010.42 1010.19 1009.87 1009.49 1009.08 1008.67 1008.31 1008.04 1007.90 1007.89 1008.04 1008.32 1008.72 1009.20 1009.73 1010.26 1010.77 1011.24 1011.66 1012.04 1012.40 1012.74 1013.07 1013.42 1013.77 1014.11 1014.45 1014.75 1015.02 1015.25 1015.44 1015.61 1015.75 1015.90 1016.05 1016.21 1016.40 1016.60 1016.81 1017.03
1010.79 1010.81 1010.70 1010.47 1010.11 1009.65 1009.14 1008.61 1008.11 1007.67 1007.35 1007.16 1007.12 1007.22 1007.46 1007.81 1008.24 1008.71 1009.21 1009.70 1010.17 1010.61 1011.04 1011.45 1011.87 1012.30 1012.73 1013.18 1013.62 1014.05 1014.44 1014.80 1015.11 1015.39 1015.62 1015.83 1016.03 1016.23 1016.43 1016.64 1016.85 1017.05 1017.24 1017.42
1011.05 1010.96 1010.72 1010.32 1009.80 1009.19 1008.54 1007.92 1007.37 1006.94 1006.65 1006.52 1006.56 1006.73 1007.03 1007.40 1007.82 1008.26 1008.70 1009.13 1009.55 1009.97 1010.40 1010.86 1011.34 1011.85 1012.38 1012.92 1013.46 1013.96 1014.41 1014.82 1015.17 1015.48 1015.76 1016.01 1016.27 1016.52 1016.77 1017.02 1017.26 1017.47 1017.65 1017.80
1011.08 1010.89 1010.54 1010.04 1009.42 1008.74 1008.04 1007.40 1006.86 1006.46 1006.23 1006.17 1006.26 1006.48 1006.79 1007.15 1007.54 1007.92 1008.30 1008.67 1009.04 1009.43 1009.87 1010.35 1010.88 1011.47 1012.08 1012.69 1013.29 1013.85 1014.35 1014.79 1015.17 1015.51 1015.81 1016.11 1016.40 1016.71 1017.01 1017.30 1017.57 1017.81 1017.99 1018.11
1010.80 1010.52 1010.10 1009.56 1008.93 1008.25 1007.59 1007.00 1006.53 1006.22 1006.07 1006.09 1006.24 1006.49 1006.81 1007.15 1007.49 1007.82 1008.12 1008.43 1008.75 1009.11 1009.54 1010.03 1010.59 1011.22 1011.87 1012.53 1013.16 1013.75 1014.26 1014.71 1015.10 1015.45 1015.77 1016.09 1016.42 1016.77 1017.11 1017.45 1017.75 1018.01 1018.20 1018.33
1010.21 1009.86 1009.41 1008.88 1008.30 1007.71 1007.15 1006.69 1006.36 1006.18 1006.15 1006.27 1006.49 1006.78 1007.11 1007.43 1007.73 1008.00 1008.25 1008.49 1008.76 1009.09 1009.49 1009.97 1010.54 1011.16 1011.82 1012.47 1013.10 1013.67 1014.17 1014.60 1014.98 1015.31 1015.64 1015.98 1016.33 1016.70 1017.08 1017.45 1017.78 1018.06 1018.27 1018.41
1009.41 1009.00 1008.55 1008.07 1007.59 1007.14 1006.76 1006.48 1006.33 1006.32 1006.45 1006.68 1006.99 1007.34 1007.69 1008.01 1008.28 1008.51 1008.71 1008.90 1009.13 1009.41 1009.77 1010.21 1010.74 1011.32 1011.93 1012.54 1013.12 1013.64 1014.09 1014.48 1014.83 1015.14 1015.46 1015.79 1016.14 1016.53 1016.92 1017.31 1017.67 1017.97 1018.20 1018.36
1008.52 1008.08 1007.65 1007.26 1006.91 1006.64 1006.46 1006.40 1006.46 1006.64 1006.93 1007.30 1007.71 1008.13 1008.51 1008.84 1009.11 1009.31 1009.48 1009.64 1009.82 1010.05 1010.35 1010.73 1011.19 1011.69 1012.22 1012.75 1013.24 1013.68 1014.07 1014.39 1014.69 1014.96 1015.25 1015.56 1015.90 1016.28 1016.68 1017.07 1017.43 1017.75 1018.00 1018.17
1007.73 1007.26 1006.88 1006.58 1006.39 1006.30 1006.34 1006.49 1006.76 1007.13 1007.58 1008.08 1008.59 1009.08 1009.50 1009.86 1010.13 1010.33 1010.48 1010.61 1010.75 1010.93 1011.17 1011.47 1011.83 1012.23 1012.66 1013.07 1013.46 1013.80 1014.09 1014.34 1014.57 1014.80 1015.04 1015.32 1015.63 1015.99 1016.36 1016.74 1017.10 1017.41 1017.67 1017.86
1007.19 1006.71 1006.38 1006.19 1006.13 1006.22 1006.44 1006.79 1007.24 1007.77 1008.36 1008.96 1009.55 1010.09 1010.56 1010.94 1011.23 1011.43 1011.58 1011.70 1011.81 1011.94 1012.11 1012.33 1012.59 1012.88 1013.18 1013.47 1013.73 1013.96 1014.15 1014.32 1014.48 1014.65 1014.84 1015.07 1015.34 1015.65 1015.99 1016.33 1016.66 1016.96 1017.22 1017.43
1006.97 1006.52 1006.25 1006.15 1006.22 1006.46 1006.83 1007.31 1007.89 1008.53 1009.20 1009.87 1010.51 1011.08 1011.57 1011.96 1012.26 1012.48 1012.64 1012.75 1012.84 1012.94 1013.05 1013.19 1013.35 1013.53 1013.71 1013.87 1014.01 1014.13 1014.22 1014.30 1014.39 1014.48 1014.61 1014.79 1015.00 1015.26 1015.54 1015.84 1016.13 1016.41 1016.66 1016.87
1007.11 1006.70 1006.49 1006.49 1006.66 1007.00 1007.47 1008.04 1008.68 1009.36 1010.06 1010.74 1011.37 1011.93 1012.41 1012.81 1013.11 1013.35 1013.51 1013.63 1013.72 1013.79 1013.86 1013.94 1014.02 1014.09 1014.16 1014.21 1014.23 1014.25 1014.24 1014.23 1014.24 1014.26 1014.33 1014.43 1014.58 1014.77 1015.00 1015.24 1015.49 1015.74 1015.97 1016.20
1007.51 1007.17 1007.05 1007.13 1007.38 1007.78 1008.30 1008.90 1009.54 1010.21 1010.87 1011.50 1012.07 1012.59 1013.04 1013.41 1013.71 1013.95 1014.12 1014.25 1014.35 1014.42 1014.46 1014.49 1014.51 1014.50 1014.47 1014.42 1014.35 1014.26 1014.17 1014.07 1014.00 1013.95 1013.94 1013.98 1014.06 1014.18 1014.34 1014.53 1014.73 1014.95 1015.18 1015.41
1008.05 1007.82 1007.80 1007.96 1008.28 1008.72 1009.25 1009.83 1010.42 1011.02 1011.59 1012.13 1012.62 1013.05 1013.43 1013.76 1014.04 1014.27 1014.46 1014.60 1014.71 1014.78 1014.82 1014.82 1014.79 1014.72 1014.62 1014.48 1014.33 1014.15 1013.97 1013.80 1013.65 1013.53 1013.45 1013.41 1013.43 1013.48 1013.58 1013.71 1013.88 1014.07 1014.28 1014.52
1008.64 1008.53 1008.62 1008.87 1009.25 1009.72 1010.23 1010.76 1011.28 1011.78 1012.23 1012.64 1013.01 1013.34 1013.64 1013.91 1014.15 1014.36 1014.55 1014.71 1014.83 1014.91 1014.95 1014.94 1014.88 1014.77 1014.61 1014.41 1014.18 1013.94 1013.69 1013.45 1013.23 1013.04 1012.89 1012.79 1012.73 1012.73 1012.76 1012.84 1012.97 1013.13 1013.32 1013.56
1009.17 1009.22 1009.43 1009.78 1010.22 1010.71 1011.20 1011.67 1012.10 1012.47 1012.80 1013.08 1013.32 1013.53 1013.73 1013.93 1014.12 1014.31 1014.49 1014.66 1014.79 1014.88 1014.92 1014.91 1014.83 1014.69 1014.49 1014.25 1013.97 1013.67 1013.36 1013.07 1012.79 1012.55 1012.34 1012.19 1012.07 1012.01 1011.99 1012.01 1012.08 1012.20 1012.36 1012.57
1009.64 1009.85 1010.20 1010.64 1011.14 1011.64 1012.11 1012.53 1012.87 1013.13 1013.33 1013.48 1013.59 1013.70 1013.80 1013.92 1014.06 1014.22 1014.38 1014.54 1014.67 1014.77 1014.82 1014.80 1014.71 1014.56 1014.34 1014.07 1013.76 1013.43 1013.09 1012.75 1012.44 1012.16 1011.92 1011.71 1011.55 1011.43 1011.35 1011.32 1011.33 1011.38 1011.48 1011.63
1010.07 1010.43 1010.91 1011.45 1012.00 1012.52 1012.97 1013.33 1013.59 1013.76 1013.85 1013.89 1013.89 1013.90 1013.92 1013.97 1014.05 1014.17 1014.31 1014.45 1014.58 1014.67 1014.71 1014.69 1014.61 1014.45 1014.22 1013.94 1013.63 1013.29 1012.94 1012.60 1012.28 1011.99 1011.72 1011.49 1011.29 1011.12 1010.99 1010.88 1010.81 1010.78 1010.78 1010.83
1010.52 1011.02 1011.60 1012.21 1012.80 1013.32 1013.75 1014.06 1014.26 1014.35 1014.35 1014.31 1014.23 1014.15 1014.10 1014.09 1014.13 1014.21 1014.31 1014.43 1014.55 1014.63 1014.67 1014.65 1014.56 1014.41 1014.20 1013.94 1013.64 1013.32 1013.00 1012.69 1012.38 1012.10 1011.84 1011.60 1011.38 1011.16 1010.97 1010.78 1010.61 1010.46 1010.34 1010.25
1011.07 1011.66 1012.30 1012.94 1013.53 1014.04 1014.43 1014.69 1014.83 1014.86 1014.81 1014.70 1014.56 1014.44 1014.34 1014.29 1014.29 1014.33 1014.41 1014.51 1014.60 1014.67 1014.70 1014.68 1014.61 1014.47 1014.29 1014.07 1013.81 1013.55 1013.27 1013.01 1012.75 1012.51 1012.27 1012.04 1011.81 1011.56 1011.31 1011.04 1010.76 1010.48 1010.21 1009.95
1011.72 1012.34 1012.99 1013.61 1014.16 1014.62 1014.96 1015.17 1015.26 1015.24 1015.15 1015.01 1014.85 1014.70 1014.58 1014.50 1014.48 1014.50 1014.55 1014.63 1014.70 1014.76 1014.79 1014.78 1014.72 1014.62 1014.47 1014.30 1014.11 1013.91 1013.72 1013.52 1013.34 1013.15 1012.96 1012.75 1012.52 1012.25 1011.95 1011.61 1011.23 1010.82 1010.39 1009.97
1012.44 1013.03 1013.62 1014.17 1014.64 1015.02 1015.28 1015.43 1015.47 1015.43 1015.32 1015.17 1015.01 1014.86 1014.75 1014.67 1014.64 1014.66 1014.70 1014.76 1014.82 1014.87 1014.90 1014.90 1014.86 1014.80 1014.70 1014.59 1014.48 1014.36 1014.24 1014.13 1014.02 1013.90 1013.76 1013.59 1013.38 1013.11 1012.77 1012.37 1011.91 1011.39 1010.83 1010.26
1013.15 1013.64 1014.12 1014.56 1014.92 1015.19 1015.37 1015.45 1015.45 1015.39 1015.27 1015.14 1015.01 1014.89 1014.81 1014.76 1014.75 1014.77 1014.81 1014.87 1014.93 1014.98 1015.01 1015.01 1015.00 1014.97 1014.92 1014.87 1014.82 1014.78 1014.74 1014.71 1014.67 1014.62 1014.54 1014.41 1014.23 1013.96 1013.62 1013.19 1012.68 1012.09 1011.45 1010.78
1013.73 1014.10 1014.43 1014.72 1014.95 1015.10 1015.19 1015.22 1015.19 1015.12 1015.04 1014.94 1014.86 1014.80 1014.76 1014.76 1014.78 1014.82 1014.88 1014.94 1015.00 1015.05 1015.08 1015.10 1015.10 1015.09 1015.08 1015.08 1015.08 1015.10 1015.12 1015.15 1015.17 1015.17 1015.14 1015.06 1014.90 1014.67 1014.34 1013.91 1013.39 1012.79 1012.12 1011.42
1014.12 1014.33 1014.51 1014.64 1014.74 1014.79 1014.80 1014.78 1014.75 1014.71 1014.66 1014.63 1014.62 1014.63 1014.66 1014.71 1014.77 1014.85 1014.92 1014.99 1015.05 1015.09 1015.12 1015.14 1015.15 1015.16 1015.17 1015.19 1015.22 1015.26 1015.32 1015.38 1015.44 1015.47 1015.48 1015.43 1015.31 1015.11 1014.81 1014.43 1013.95 1013.38 1012.75 1012.08
1014.25 1014.31 1014.35 1014.35 1014.34 1014.31 1014.28 1014.26 1014.24 1014.24 1014.27 1014.32 1014.39 1014.47 1014.57 1014.68 1014.79 1014.89 1014.98 1015.06 1015.11 1015.14 1015.16 1015.17 1015.17 1015.17 1015.17 1015.19 1015.23 1015.27 1015.33 1015.40 1015.46 1015.51 1015.52 1015.49 1015.40 1015.25 1015.01 1014.68 1014.28 1013.80 1013.25 1012.67
1014.14 1014.09 1014.02 1013.94 1013.86 1013.80 1013.77 1013.77 1013.80 1013.87 1013.98 1014.11 1014.26 1014.43 1014.59 1014.75 1014.89 1015.01 1015.10 1015.17 1015.21 1015.22 1015.22 1015.20 1015.18 1015.15 1015.14 1015.14 1015.15 1015.17 1015.21 1015.26 1015.30 1015.34 1015.35 1015.33 1015.26 1015.14 1014.96 1014.71 1014.40 1014.03 1013.61 1013.15
Thickness
5819 5834 5840 5838 5837 5840 5838 5839 5832 5835 5836 5842 5851 5853 5855 5853 5850 5845 5840 5836 5832 5828 5824 5821 5817 5814 5811 5806 5802 5797 5789 5782 5776 5771 5766 5761 5756 5752 5748 5745 5742 5739 5736 5732
5804 5823 5831 5831 5838 5840 5840 5842 5840 5838 5835 5851 5855 5857 5851 5848 5844 5838 5835 5832 5829 5826 5821 5817 5814 5811 5808 5803 5799 5794 5786 5780 5775 5769 5762 5757 5751 5747 5743 5740 5737 5734 5730 5726
5786 5810 5814 5808 5830 5834 5837 5845 5842 5830 5836 5845 5842 5842 5841 5841 5839 5836 5832 5830 5826 5823 5820 5816 5813 5810 5805 5800 5796 5789 5783 5777 5771 5765 5758 5753 5749 5743 5739 5735 5731 5727 5724 5720
5780 5786 5771 5812 5849 5847 5838 5840 5847 5845 5847 5844 5841 5842 5843 5843 5837 5833 5831 5828 5825 5822 5819 5816 5812 5808 5803 5798 5791 5784 5778 5772 5767 5761 5755 5749 5744 5738 5734 5730 5725 5721 5717 5714
5771 5769 5781 5812 5835 5838 5828 5821 5843 5842 5842 5842 5843 5836 5831 5837 5836 5832 5830 5827 5825 5822 5818 5813 5808 5803 5798 5791 5786 5779 5773 5768 5763 5757 5751 5745 5739 5734 5729 5725 5720 5716 5712 5708
5766 5759 5764 5797 5829 5845 5831 5807 5836 5838 5833 5834 5834 5815 5812 5826 5828 5826 5825 5823 5821 5818 5813 5806 5803 5798 5791 5784 5779 5773 5768 5764 5759 5754 5747 5741 5735 5730 5725 5721 5716 5711 5706 5703
5758 5760 5779 5811 5830 5830 5794 5796 5827 5831 5829 5826 5818 5815 5817 5821 5820 5818 5816 5815 5814 5809 5803 5799 5796 5791 5783 5777 5772 5769 5765 5759 5754 5748 5742 5736 5730 5725 5720 5715 5710 5705 5700 5696
5755 5754 5765 5807 5814 5801 5797 5815 5821 5821 5820 5816 5813 5813 5812 5811 5809 5808 5806 5805 5804 5798 5793 5790 5787 5782 5775 5770 5767 5763 5758 5752 5747 5742 5738 5731 5725 5719 5714 5709 5704 5699 5694 5689
5760 5762 5780 5796 5798 5803 5809 5806 5809 5810 5810 5808 5804 5801 5800 5799 5798 5799 5797 5796 5794 5789 5783 5780 5777 5774 5766 5763 5761 5756 5750 5744 5739 5734 5730 5725 5719 5713 5708 5703 5699 5694 5689 5684
5758 5764 5775 5783 5788 5795 5799 5799 5802 5803 5802 5800 5794 5792 5789 5787 5787 5786 5786 5785 5783 5779 5773 5769 5767 5764 5760 5756 5753 5747 5740 5735 5731 5726 5721 5716 5712 5707 5702 5697 5694 5689 5684 5679
5746 5756 5763 5768 5775 5781 5786 5791 5792 5793 5792 5789 5786 5782 5779 5777 5775 5775 5775 5774 5772 5767 5763 5759 5757 5754 5751 5748 5744 5737 5732 5727 5723 5718 5713 5708 5702 5696 5692 5687 5684 5682 5678 5674
5735 5747 5747 5750 5763 5771 5772 5774 5777 5777 5776 5778 5777 5772 5770 5767 5766 5765 5763 5763 5760 5757 5754 5751 5748 5745 5742 5740 5736 5730 5724 5719 5716 5712 5706 5701 5694 5686 5679 5676 5673 5670 5668 5664
5738 5744 5746 5748 5755 5760 5762 5764 5767 5767 5766 5765 5765 5764 5760 5757 5756 5754 5753 5751 5749 5747 5744 5742 5739 5735 5734 5731 5727 5722 5717 5713 5710 5705 5699 5694 5688 5682 5674 5667 5663 5660 5658 5654
5728 5731 5730 5735 5740 5747 5751 5754 5756 5756 5756 5756 5754 5753 5750 5747 5745 5742 5741 5741 5740 5737 5734 5731 5728 5726 5724 5722 5718 5713 5709 5705 5702 5698 5693 5689 5683 5678 5672 5666 5660 5654 5648 5643
5717 5720 5722 5726 5731 5734 5738 5740 5739 5739 5741 5742 5742 5740 5738 5735 5732 5731 5731 5731 5729 5725 5722 5720 5717 5715 5715 5712 5708 5705 5701 5698 5694 5691 5687 5682 5677 5672 5668 5662 5657 5651 5643 5635
5706 5710 5713 5713 5715 5719 5722 5725 5725 5725 5727 5727 5727 5726 5726 5724 5723 5722 5721 5720 5716 5713 5711 5710 5707 5706 5705 5702 5699 5696 5693 5689 5685 5683 5679 5674 5670 5665 5660 5656 5652 5646 5639 5633
5691 5693 5696 5699 5703 5707 5711 5713 5714 5715 5716 5715 5715 5715 5714 5712 5710 5709 5709 5708 5707 5704 5702 5700 5698 5697 5695 5692 5690 5688 5685 5680 5676 5674 5670 5666 5662 5657 5653 5649 5645 5641 5635 5630
5687 5689 5692 5694 5695 5697 5699 5701 5704 5704 5704 5706 5706 5704 5702 5700 5699 5698 5697 5697 5695 5693 5692 5691 5689 5687 5685 5683 5681 5679 5675 5672 5668 5665 5661 5657 5654 5651 5647 5643 5638 5634 5629 5623
5680 5681 5683 5685 5688 5688 5688 5689 5692 5694 5696 5696 5694 5693 5693 5692 5691 5690 5689 5686 5684 5681 5682 5682 5678 5676 5675 5672 5670 5668 5666 5663 5659 5656 5653 5648 5645 5643 5639 5635 5631 5627 5623 5618
5668 5671 5673 5676 5678 5679 5679 5681 5682 5683 5685 5685 5684 5683 5682 5682 5682 5680 5678 5676 5676 5675 5674 5671 5668 5666 5665 5662 5658 5659 5657 5654 5651 5647 5643 5640 5636 5633 5630 5627 5623 5620 5616 5612
5656 5659 5662 5664 5666 5668 5670 5671 5673 5672 5674 5675 5674 5673 5673 5674 5674 5672 5669 5666 5666 5666 5664 5660 5659 5657 5655 5652 5648 5649 5648 5646 5643 5639 5636 5633 5629 5626 5622 5618 5615 5612 5608 5605
5647 5650 5652 5654 5656 5658 5660 5663 5664 5665 5665 5666 5666 5666 5665 5664 5664 5663 5662 5660 5658 5655 5654 5652 5650 5647 5644 5641 5641 5641 5639 5637 5634 5632 5629 5624 5620 5617 5613 5609 5606 5603 5600 5597
5637 5640 5642 5643 5645 5647 5650 5652 5654 5655 5656 5656 5656 5656 5656 5655 5655 5653 5651 5651 5650 5645 5645 5643 5639 5636 5633 5632 5633 5632 5630 5627 5625 5622 5619 5615 5612 5608 5604 5601 5598 5595 5591 5588
5627 5629 5631 5634 5636 5637 5637 5641 5643 5645 5646 5646 5647 5648 5647 5646 5645 5646 5644 5641 5638 5635 5634 5630 5627 5625 5622 5623 5623 5622 5619 5617 5615 5613 5611 5607 5604 5600 5596 5593 5589 5587 5584 5581
5618 5620 5623 5624 5625 5627 5629 5631 5633 5634 5635 5637 5638 5639 5640 5639 5637 5637 5635 5631 5627 5624 5624 5620 5616 5614 5614 5614 5613 5611 5609 5608 5606 5604 5602 5598 5596 5593 5589 5586 5582 5580 5577 5573
5609 5611 5613 5615 5617 5619 5622 5623 5625 5626 5627 5627 5628 5629 5630 5630 5629 5627 5624 5621 5619 5615 5615 5612 5609 5605 5606 5605 5604 5602 5601 5599 5597 5595 5593 5590 5588 5585 5583 5579 5576 5573 5570 5566
5604 5605 5606 5608 5610 5613 5615 5615 5615 5616 5618 5618 5617 5618 5620 5619 5618 5616 5614 5612 5610 5607 5606 5604 5602 5600 5599 5598 5597 5595 5593 5592 5590 5588 5585 5583 5581 5579 5576 5572 5569 5566 5563 5559